OPS 4682 DEB, 38437

Orbit data source: Space-Track

OPS 4682 DEB, 38437 is space debris in LEO originally from a launch on Sat, 03 Apr 1965 UTC launched from the Air Force Western Test Range (AFWTR). Debris objects in space refer to the collection of defunct objects orbiting the Earth. Examples of debris include non-operational satellites, rocket bodies, and fragments generated from explosions, collisions, or faulty payload assembly.

Loading next visibility...
Identifier
38437, 1965-027ES
Orbit
LEO
Country
Flag of USUS
Related business
Manufacturer
Unknown
Mission
Spacecraft
Bus & Motor
Unknown
Mass
Unknown
Launch date (UTC)
1965-04-03 (61 years ago)
Launch vehicle
Unknown
Launch site
Air Force Western Test Range (AFWTR)
Object type
Payload
Rocket body
Debris
Shape & HBR
Unknown shape, 0.1 m
Radar Cross Section
Small (<0.1 m²)

Expand to show TLE details & history
Last TLE update: 4 days ago

TLE from 4 days ago
0 OPS 4682 DEB
1 38437U 65027ES  25290.18187095  .00000549  00000-0  19051-2 0  9998
2 38437  90.2380   0.4309 0039656  85.2284 275.3362 12.95790440519074
Epoch: 2025-10-17T04:21Z
TLE epoch observation values (Epoch: 2025-10-17T04:21:53.650Z)
Latitude
-0.00005°
Longitude
-90.97356°
Altitude
1,278.797 km
Speed
7.218 km/s
True Right ascension
00h 01m 43s
True Declination
0° 00' 00"
Sunlit
Object was in full shadow at epoch
Visualization orbit readout
Latitude
Unknown
Longitude
Unknown
Altitude
Unknown
Speed
Unknown
Apparent Right ascension
Unknown
Apparent Declination
Unknown
Sunlit
N/A
Visualization observer readout
Local Sidereal Time
18:05:33
Azimuth
Unknown
Elevation
Unknown
Doppler factor
Unknown
Orbital elements
Apogee altitude
1,306.11 km
Perigee altitude
1,245.405 km
Semi-major axis
7,653.895 km
Eccentricity
0.00397
Inclination
90.238°
RAAN
0.4309°
Arg. of periapsis
85.2284°
True anomaly
274.88354°
Mean anomaly
275.3362°
Eccentric anomaly
275.10989°
Mean motion
3.2413 °/min
Orbital period
111.07 mins
BSTAR
0.0019051
Loading maneuver chart data...
Computing Atmospheric mass density...
Loading historical data...
Loading historical data...
Loading historical data...
Loading historical data...
Loading historical data...
Loading historical data...
Loading historical data...

Documentation

Showing up to 5 results
|